Tracking 19792 objects as of 15-Jul-2019
HD Live streaming from Space Station
objects crossing your sky now

THORAD DELTA 1 DEB

Track THORAD DELTA 1 DEB now!
10-day predictions


NORAD ID: 14879
Int'l Code: 1974-089ES
Perigee: 1,447.9 km
Apogee: 1,792.5 km
Inclination: 101.2 °
Period: 118.5 minutes
Semi major axis: 7991 km
RCS: 0.0345 m2 (small)
Launch date: November 15, 1974
Source: United States (US)
Launch site: AIR FORCE WESTERN TEST RANGE (AFWTR)

Note: This is SATELLITE DEBRIS
aabbcc
Your satellite tracking list
Your tracking list is empty




NASA's NSSDC Master Catalog

Two Line Element Set (TLE):
1 14879U 74089ES  19196.49412492 -.00000003  00000-0  31925-3 0  9995
2 14879 101.2094  16.1192 0215572  42.1642 347.2515 12.15306488580210
Source of the keplerian elements: AFSPC